DW4360 Weather Reports


time (UTC)temp
F
wind
direction
speed
knots
gust
knots
rain 1hr
in
rain 24hr
in
rain mn
in
humidity
%
barometer
mb
20260504184359 62 254 0.0 0.0 0.00 0.00 0.00 74 1012.5
20260504183359 62 181 0.0 0.0 0.00 0.00 0.00 75 1012.4
20260504182358 62 192 6.1 0.0 0.00 0.00 0.00 76 1012.4
20260504181356 61 214 0.0 0.0 0.00 0.00 0.00 78 1012.4
20260504180355 60 206 0.0 0.0 0.00 0.00 0.00 79 1012.5
20260504172351 58 215 0.0 0.0 0.00 0.00 0.00 80 1012.4
20260504171350 58 254 0.9 0.0 0.00 0.00 0.00 81 1012.4
20260504160343 57 229 0.0 0.0 0.00 0.00 0.00 83 1012.3
20260504150337 55 184 5.2 0.0 0.00 0.00 0.00 85 1011.9
20260504141331 55 266 0.9 0.0 0.00 0.00 0.00 85 1011.2
20260504110312 61 214 2.6 0.0 0.00 0.00 0.00 73 1008.5
20260504100307 64 198 0.0 0.0 0.00 0.00 0.00 68 1007.7
20260504081255 68 315 0.0 0.0 0.00 0.00 0.00 56 1007.0
20260504080254 69 315 0.0 0.0 0.00 0.00 0.00 57 1006.8
20260504070248 72 315 0.0 0.0 0.00 0.00 0.00 47 1006.4
20260504060242 75 315 0.0 0.0 0.00 0.00 0.00 41 1005.9
20260504050236 77 324 0.0 0.0 0.00 0.00 0.00 40 1005.8
20260504045235 78 324 0.0 0.0 0.00 0.00 0.00 40 1005.9
20260504044234 78 316 0.0 0.0 0.00 0.00 0.00 40 1005.8
20260504043233 79 322 1.7 0.0 0.00 0.00 0.00 41 1005.7
20260504042232 79 321 0.0 0.0 0.00 0.00 0.00 41 1005.7
20260504041231 80 324 0.0 0.0 0.00 0.00 0.00 41 1005.7
20260504040230 80 322 0.0 0.0 0.00 0.00 0.00 39 1005.5
20260504035229 81 325 0.0 0.0 0.00 0.00 0.00 38 1005.4
20260504034228 82 304 0.0 0.0 0.00 0.00 0.00 37 1005.3
20260504033226 82 333 0.0 0.0 0.00 0.00 0.00 37 1005.2
20260504032225 83 320 0.0 0.0 0.00 0.00 0.00 36 1005.1
20260504031225 84 325 0.0 0.0 0.00 0.00 0.00 35 1005.0
20260504030223 84 317 0.0 0.0 0.00 0.00 0.00 34 1005.0
20260504025223 85 326 2.6 0.0 0.00 0.00 0.00 33 1004.9
20260504024221 85 321 0.0 0.0 0.00 0.00 0.00 32 1004.8
20260504023221 86 323 1.7 0.0 0.00 0.00 0.00 31 1004.8
20260504022220 86 318 1.7 0.0 0.00 0.00 0.00 31 1004.9
20260504021219 86 313 0.0 0.0 0.00 0.00 0.00 31 1004.9
20260504015217 87 333 1.7 0.0 0.00 0.00 0.00 30 1005.0
20260504014216 88 329 5.2 0.0 0.00 0.00 0.00 30 1005.0
20260504012213 89 311 0.0 0.0 0.00 0.00 0.00 29 1005.0
20260504011213 89 324 3.5 0.0 0.00 0.00 0.00 28 1005.2
20260504010212 90 320 5.2 0.0 0.00 0.00 0.00 27 1005.2
20260504001206 96 332 0.0 0.0 0.00 0.00 0.00 23 1005.4
20260504000205 96 324 3.5 0.0 0.00 0.00 0.00 24 1005.5
20260503234203 96 329 0.0 0.0 0.00 0.00 0.00 24 1005.6
20260503232201 96 301 0.0 0.0 0.00 0.00 0.00 26 1005.8
20260503231200 96 321 2.6 0.0 0.00 0.00 0.00 25 1006.0
20260503225158 94 319 0.0 0.0 0.00 0.00 0.00 25 1006.2
20260503224158 94 323 0.0 0.0 0.00 0.00 0.00 26 1006.4
20260503223157 94 333 0.0 0.0 0.00 0.00 0.00 25 1006.7
20260503222155 94 314 4.3 0.0 0.00 0.00 0.00 26 1006.7
20260503221154 94 309 0.0 0.0 0.00 0.00 0.00 25 1006.9
20260503220153 94 311 0.0 0.0 0.00 0.00 0.00 24 1007.0
20260503215152 94 327 0.0 0.0 0.00 0.00 0.00 27 1007.2
20260503214151 94 317 0.0 0.0 0.00 0.00 0.00 30 1007.3
20260503213150 93 325 4.3 0.0 0.00 0.00 0.00 30 1007.4
20260503212149 92 327 3.5 0.0 0.00 0.00 0.00 31 1007.5
20260503211148 91 109 0.0 0.0 0.00 0.00 0.00 32 1007.7
20260503205146 91 327 0.0 0.0 0.00 0.00 0.00 33 1007.9
20260503203144 89 319 0.0 0.0 0.00 0.00 0.00 36 1008.3
20260503201142 88 311 0.0 0.0 0.00 0.00 0.00 40 1008.5
20260503200141 87 315 0.0 0.0 0.00 0.00 0.00 41 1008.6
20260503195140 86 324 0.0 0.0 0.00 0.00 0.00 42 1008.8
20260503193138 84 318 3.5 0.0 0.00 0.00 0.00 43 1009.0
20260503192137 83 327 6.1 0.0 0.00 0.00 0.00 43 1009.2
20260503191136 82 319 3.5 0.0 0.00 0.00 0.00 45 1009.3
20260503190135 82 320 0.0 0.0 0.00 0.00 0.00 47 1009.5